Showing default

BNU-1, 44529

Orbit data source: Space-Track

BNU-1, 44529 is a payload satellite owned by BNU (CN) in SSO that was launched on Thu, 12 Sep 2019 UTC via a CHANG ZHENG 4B launch vehicle from the Taiyaun Space Center, China (TSC). Payload-class satellites include a variety of spacecraft equipped with specific instruments for various scientific and technological missions. These include communications satellites like Starlink; space stations such as the ISS; scientific satellites like the Hubble; Earth observation satellites from companies like Planet Labs, Umbra, and HawkEye 360; GPS; miniature CubeSats for education and research; and military/defense satellites.

Loading next visibility...
Identifier
44529, 2019-059B
Orbit
SSO
Country
Flag of CNCN / PRC
Related business
Manufacturer
BNU
Mission
Operational Amateur Imaging
Bus & Motor
BNU, Unknown motor
Mass
16 kg wet, 16 kg dry
Launch date (UTC)
2019-09-12 (7 years ago)
Launch vehicle
CHANG ZHENG 4B
Launch site
Taiyaun Space Center, China (TSC)
Object type
Payload
Rocket body
Debris
Shape & HBR
Box + 1 Pan, Unknown HBR
Radar Cross Section
0.194 m², Medium (>0.1 m² and < 1m²)

Expand to show TLE details & history
Last TLE update: 1 day ago

TLE from 1 day ago
0 BNU-1
1 44529U 19059B   26172.50476127  .00000234  00000-0  74916-4 0  9998
2 44529  98.6074 301.6703 0013238   6.0754 354.0596 14.48390677357612
Epoch: 2026-06-21T12:06Z
TLE epoch observation values (Epoch: 2026-06-21T12:06:51.373Z)
Latitude
-0.0001°
Longitude
-149.74781°
Altitude
724.504 km
Speed
7.498 km/s
True Right ascension
20h 06m 40s
True Declination
0° 00' 00"
Sunlit
Object was in full shadow at epoch
Visualization orbit readout
Latitude
Unknown
Longitude
Unknown
Altitude
Unknown
Speed
Unknown
Apparent Right ascension
Unknown
Apparent Declination
Unknown
Sunlit
N/A
Visualization observer readout
Local Sidereal Time
23:18:45
Azimuth
Unknown
Elevation
Unknown
Doppler factor
Unknown
Orbital elements
Apogee altitude
737.433 km
Perigee altitude
718.618 km
Semi-major axis
7,106.162 km
Eccentricity
0.00132
Inclination
98.6074°
RAAN
301.6703°
Arg. of periapsis
6.0754°
True anomaly
354.04387°
Mean anomaly
354.0596°
Eccentric anomaly
354.05174°
Mean motion
3.62318 °/min
Orbital period
99.36 mins
BSTAR
0.000074916
Loading maneuver chart data...
Computing Atmospheric mass density...
Loading historical data...
Loading historical data...
Loading historical data...
Loading historical data...
Loading historical data...
Loading historical data...
Loading historical data...
Other satellites on launch #59 in the year 2019 (2019-09-12 UTC)

Documentation

Showing up to 5 results
|